Voltar ao catálogo

CZ-6A DEB

AtivoSSO
NORAD 54522·DEBRIS·🇨🇳 China

Lançado Nov 11, 2022 de Taiyuan Satellite Launch Center

Loading…

Próximas Passagens (próximas 24 horas)

TLE

AtualizadoSource: Space-Track

Época: Sep 14, 2026, 03:45 UTC

1 54522U 22151KA  26257.15674332  .00000716  00000-0  47295-3 0  9996
2 54522  98.8976 236.1942 0108619 180.2539 179.8589 14.01981387196103

Acompanhe CZ-6A DEB em tempo real com AllMySat

Download on the App Store